{"data":{"norad_id":53506,"intl_designator":"2022-099AT","name":"STARLINK-4437","alt_names":[],"object_type":"PAYLOAD","status":"ACTIVE","operator":null,"country":"US","launch_date":"2022-08-12","launch_site_code":"AFWTR","launch_vehicle":null,"mission":null,"orbit_class":"UNKNOWN","rcs_meters":null,"size_class":null,"mass_kg":null,"dimensions":null,"purposes":["comms"],"wikipedia_slug":null,"has_3d_model":false,"image_url":null,"decayed_at":null,"tle_current":{"epoch":"2026-08-24T18:41:28.000320Z","epoch_age_seconds":2387249,"freshness":"OLD","line1":"1 53506U 22099AT  26236.77879630  .04935813  26423-5  50508-3 0  9993","line2":"2 53506  97.5814   9.5968 0012131 283.6805  76.3141 16.37733367222152","mean_motion":16.37733367,"eccentricity":0.0012131,"inclination_deg":97.5814,"raan_deg":9.5968,"arg_perigee_deg":283.6805,"mean_anomaly_deg":76.3141,"bstar":0.00050508,"rev_number":22215,"period_min":87.926400537213,"perigee_km":163.89323997358,"apogee_km":179.7847917833,"semimajor_km":6549.9760158784,"source":"CELESTRAK","updated_at":"2026-08-25T09:00:51.519976Z"}}}